Time,TemperatureF,DewpointF,PressureIn,WindDirection,WindDirectionDegrees,WindSpeedMPH,WindSpeedGustMPH,Humidity,HourlyPrecipIn,Conditions,Clouds,dailyrainin,SoftwareType,DateUTC
2013-10-07 00:00:00,43.8,41.3,29.94,NW,316,0.0,0.0,91,0.00,,,0.00,Wunderground v.1.15,2013-10-07 05:00:00,
2013-10-07 00:05:00,43.6,41.1,29.94,NW,316,0.0,0.0,91,0.00,,,0.00,Wunderground v.1.15,2013-10-07 05:05:00,
2013-10-07 00:10:00,43.4,40.9,29.94,NW,316,0.0,0.0,91,0.00,,,0.00,Wunderground v.1.15,2013-10-07 05:10:00,
2013-10-07 00:20:00,43.3,40.8,29.94,West,266,0.0,1.0,91,0.00,,,0.00,Wunderground v.1.15,2013-10-07 05:20:00,
2013-10-07 00:30:00,43.4,40.9,29.93,West,265,1.0,2.0,91,0.00,,,0.00,Wunderground v.1.15,2013-10-07 05:30:00,
2013-10-07 00:40:00,43.5,40.8,29.93,West,265,1.0,1.0,90,0.00,,,0.00,Wunderground v.1.15,2013-10-07 05:40:00,
2013-10-07 00:50:00,43.5,40.8,29.93,West,270,2.0,4.0,90,0.00,,,0.00,Wunderground v.1.15,2013-10-07 05:50:00,
2013-10-07 01:00:00,43.6,40.9,29.93,West,270,1.0,2.0,90,0.00,,,0.00,Wunderground v.1.15,2013-10-07 06:00:00,
2013-10-07 01:05:00,43.6,40.9,29.93,WSW,242,1.0,2.0,90,0.00,,,0.00,Wunderground v.1.15,2013-10-07 06:05:00,
2013-10-07 01:15:00,43.8,41.1,29.93,West,268,1.0,4.0,90,0.00,,,0.00,Wunderground v.1.15,2013-10-07 06:15:00,
2013-10-07 01:20:00,44.0,41.3,29.93,West,276,2.0,2.0,90,0.00,,,0.00,Wunderground v.1.15,2013-10-07 06:20:00,
2013-10-07 01:30:00,44.1,41.4,29.93,West,276,1.0,2.0,90,0.00,,,0.00,Wunderground v.1.15,2013-10-07 06:30:00,
2013-10-07 01:40:00,44.2,41.5,29.93,West,277,1.0,1.0,90,0.00,,,0.00,Wunderground v.1.15,2013-10-07 06:40:00,
2013-10-07 01:50:00,44.2,41.5,29.93,West,277,1.0,1.0,90,0.00,,,0.00,Wunderground v.1.15,2013-10-07 06:50:00,
2013-10-07 02:00:00,44.2,41.5,29.93,West,276,1.0,1.0,90,0.00,,,0.00,Wunderground v.1.15,2013-10-07 07:00:00,
2013-10-07 02:05:00,44.1,41.4,29.92,West,277,0.0,1.0,90,0.00,,,0.00,Wunderground v.1.15,2013-10-07 07:05:00,
2013-10-07 02:15:00,44.1,41.4,29.92,West,277,1.0,1.0,90,0.00,,,0.00,Wunderground v.1.15,2013-10-07 07:15:00,
2013-10-07 02:25:00,44.1,41.4,29.92,West,276,1.0,3.0,90,0.00,,,0.00,Wunderground v.1.15,2013-10-07 07:25:00,
2013-10-07 02:35:00,43.9,41.2,29.92,West,276,1.0,1.0,90,0.00,,,0.00,Wunderground v.1.15,2013-10-07 07:35:00,
2013-10-07 02:45:00,43.7,41.0,29.92,West,276,1.0,1.0,90,0.00,,,0.00,Wunderground v.1.15,2013-10-07 07:45:00,
2013-10-07 02:55:00,43.3,40.6,29.92,West,276,1.0,2.0,90,0.00,,,0.00,Wunderground v.1.15,2013-10-07 07:55:00,
2013-10-07 03:05:00,43.2,40.8,29.92,West,276,1.0,1.0,91,0.00,,,0.00,Wunderground v.1.15,2013-10-07 08:05:00,
2013-10-07 03:15:00,43.0,40.6,29.92,West,276,1.0,2.0,91,0.00,,,0.00,Wunderground v.1.15,2013-10-07 08:15:00,
2013-10-07 03:25:00,43.0,40.6,29.92,WNW,289,1.0,3.0,91,0.00,,,0.00,Wunderground v.1.15,2013-10-07 08:25:00,
2013-10-07 03:35:00,43.0,40.3,29.92,West,265,2.0,3.0,90,0.00,,,0.00,Wunderground v.1.15,2013-10-07 08:35:00,
2013-10-07 03:40:00,43.2,40.8,29.92,West,266,1.0,1.0,91,0.00,,,0.00,Wunderground v.1.15,2013-10-07 08:40:00,
2013-10-07 03:50:00,43.3,40.6,29.91,West,267,2.0,2.0,90,0.00,,,0.00,Wunderground v.1.15,2013-10-07 08:50:00,
2013-10-07 04:00:00,43.3,40.6,29.91,West,267,1.0,2.0,90,0.00,,,0.00,Wunderground v.1.15,2013-10-07 09:00:00,
2013-10-07 04:05:00,43.3,40.8,29.91,West,274,1.0,2.0,91,0.00,,,0.00,Wunderground v.1.15,2013-10-07 09:05:00,
2013-10-07 04:15:00,43.4,40.7,29.92,WNW,286,1.0,3.0,90,0.00,,,0.00,Wunderground v.1.15,2013-10-07 09:15:00,
2013-10-07 04:25:00,43.4,40.7,29.92,WNW,282,1.0,1.0,90,0.00,,,0.00,Wunderground v.1.15,2013-10-07 09:25:00,
2013-10-07 04:35:00,43.3,40.6,29.92,WNW,286,1.0,1.0,90,0.00,,,0.00,Wunderground v.1.15,2013-10-07 09:35:00,
2013-10-07 04:45:00,43.2,40.5,29.92,West,276,2.0,2.0,90,0.00,,,0.00,Wunderground v.1.15,2013-10-07 09:45:00,
2013-10-07 04:50:00,43.2,40.5,29.93,West,262,2.0,4.0,90,0.00,,,0.00,Wunderground v.1.15,2013-10-07 09:50:00,
2013-10-07 05:00:00,43.1,40.4,29.93,WNW,286,2.0,3.0,90,0.00,,,0.00,Wunderground v.1.15,2013-10-07 10:00:00,
2013-10-07 05:05:00,43.0,40.3,29.93,West,270,2.0,3.0,90,0.00,,,0.00,Wunderground v.1.15,2013-10-07 10:05:00,
2013-10-07 05:15:00,42.9,40.2,29.93,West,274,2.0,4.0,90,0.00,,,0.00,Wunderground v.1.15,2013-10-07 10:15:00,
2013-10-07 05:20:00,42.9,40.2,29.93,West,280,2.0,3.0,90,0.00,,,0.00,Wunderground v.1.15,2013-10-07 10:20:00,
2013-10-07 05:30:00,42.8,40.1,29.93,West,267,2.0,2.0,90,0.00,,,0.00,Wunderground v.1.15,2013-10-07 10:30:00,
2013-10-07 05:40:00,42.6,39.9,29.93,West,270,2.0,2.0,90,0.00,,,0.00,Wunderground v.1.15,2013-10-07 10:40:00,
2013-10-07 05:50:00,42.5,39.8,29.93,West,276,2.0,3.0,90,0.00,,,0.00,Wunderground v.1.15,2013-10-07 10:50:00,
2013-10-07 06:00:00,42.4,39.7,29.94,NNW,341,2.0,2.0,90,0.00,,,0.00,Wunderground v.1.15,2013-10-07 11:00:00,
2013-10-07 06:05:00,42.2,39.5,29.94,West,281,1.0,2.0,90,0.00,,,0.00,Wunderground v.1.15,2013-10-07 11:05:00,
2013-10-07 06:15:00,42.0,39.6,29.94,West,273,1.0,1.0,91,0.00,,,0.00,Wunderground v.1.15,2013-10-07 11:15:00,
2013-10-07 06:20:00,41.9,39.5,29.94,West,276,0.0,0.0,91,0.00,,,0.00,Wunderground v.1.15,2013-10-07 11:20:00,
2013-10-07 06:30:00,41.7,39.5,29.95,NW,318,0.0,1.0,92,0.00,,,0.00,Wunderground v.1.15,2013-10-07 11:30:00,
2013-10-07 06:40:00,41.6,39.4,29.95,WNW,284,1.0,1.0,92,0.00,,,0.00,Wunderground v.1.15,2013-10-07 11:40:00,
2013-10-07 06:50:00,41.7,39.5,29.95,WNW,296,1.0,1.0,92,0.00,,,0.00,Wunderground v.1.15,2013-10-07 11:50:00,
2013-10-07 07:00:00,41.7,39.5,29.96,NW,325,1.0,1.0,92,0.00,,,0.00,Wunderground v.1.15,2013-10-07 12:00:00,
2013-10-07 07:05:00,41.6,39.4,29.96,NW,325,0.0,1.0,92,0.00,,,0.00,Wunderground v.1.15,2013-10-07 12:05:00,
2013-10-07 07:15:00,41.5,39.3,29.97,NW,312,0.0,3.0,92,0.00,,,0.00,Wunderground v.1.15,2013-10-07 12:15:00,
2013-10-07 07:25:00,41.5,39.3,29.98,West,277,1.0,1.0,92,0.00,,,0.00,Wunderground v.1.15,2013-10-07 12:25:00,
2013-10-07 07:30:00,41.4,39.3,29.98,NW,313,0.0,0.0,92,0.00,,,0.00,Wunderground v.1.15,2013-10-07 12:30:00,
2013-10-07 07:40:00,41.4,39.3,29.98,NW,305,0.0,0.0,92,0.00,,,0.00,Wunderground v.1.15,2013-10-07 12:40:00,
2013-10-07 07:50:00,41.4,39.3,29.98,NW,309,0.0,0.0,92,0.00,,,0.00,Wunderground v.1.15,2013-10-07 12:50:00,
2013-10-07 08:00:00,41.5,39.3,29.98,NNE,18,0.0,0.0,92,0.00,,,0.00,Wunderground v.1.15,2013-10-07 13:00:00,
2013-10-07 08:05:00,41.6,39.7,29.98,North,354,0.0,0.0,93,0.00,,,0.00,Wunderground v.1.15,2013-10-07 13:05:00,
2013-10-07 08:15:00,42.1,39.9,29.99,WNW,289,0.0,2.0,92,0.00,,,0.00,Wunderground v.1.15,2013-10-07 13:15:00,
2013-10-07 08:25:00,42.6,40.4,29.99,WNW,289,0.0,0.0,92,0.00,,,0.00,Wunderground v.1.15,2013-10-07 13:25:00,
2013-10-07 08:35:00,43.3,41.1,30.00,NW,308,1.0,1.0,92,0.00,,,0.00,Wunderground v.1.15,2013-10-07 13:35:00,
2013-10-07 08:45:00,44.2,42.0,30.00,NW,315,0.0,0.0,92,0.00,,,0.00,Wunderground v.1.15,2013-10-07 13:45:00,
2013-10-07 08:50:00,44.7,42.2,30.00,WNW,299,0.0,0.0,91,0.00,,,0.00,Wunderground v.1.15,2013-10-07 13:50:00,
2013-10-07 08:55:00,45.4,42.9,30.00,WNW,299,0.0,0.0,91,0.00,,,0.00,Wunderground v.1.15,2013-10-07 13:55:00,
2013-10-07 09:05:00,46.1,43.6,30.01,NNW,330,0.0,0.0,91,0.00,,,0.00,Wunderground v.1.15,2013-10-07 14:05:00,
2013-10-07 09:15:00,47.0,44.2,30.00,NW,320,0.0,1.0,90,0.00,,,0.00,Wunderground v.1.15,2013-10-07 14:15:00,
2013-10-07 09:25:00,48.3,44.9,30.01,North,10,2.0,3.0,88,0.00,,,0.00,Wunderground v.1.15,2013-10-07 14:25:00,
2013-10-07 09:35:00,49.4,46.0,30.01,North,354,1.0,2.0,88,0.00,,,0.00,Wunderground v.1.15,2013-10-07 14:35:00,
2013-10-07 09:40:00,49.9,46.5,30.01,NNW,345,1.0,1.0,88,0.00,,,0.00,Wunderground v.1.15,2013-10-07 14:40:00,
2013-10-07 09:50:00,51.2,46.8,30.01,North,8,1.0,1.0,85,0.00,,,0.00,Wunderground v.1.15,2013-10-07 14:50:00,
2013-10-07 10:00:00,52.4,47.7,30.02,NNW,345,1.0,1.0,84,0.00,,,0.00,Wunderground v.1.15,2013-10-07 15:00:00,
2013-10-07 10:05:00,53.0,48.0,30.02,NNW,345,0.0,1.0,83,0.00,,,0.00,Wunderground v.1.15,2013-10-07 15:05:00,
2013-10-07 10:15:00,53.9,47.9,30.02,North,4,1.0,1.0,80,0.00,,,0.00,Wunderground v.1.15,2013-10-07 15:15:00,
2013-10-07 10:20:00,54.3,47.9,30.02,WNW,300,0.0,0.0,79,0.00,,,0.00,Wunderground v.1.15,2013-10-07 15:20:00,
2013-10-07 10:30:00,55.1,48.0,30.02,WNW,300,0.0,1.0,77,0.00,,,0.00,Wunderground v.1.15,2013-10-07 15:30:00,
2013-10-07 10:40:00,55.7,48.9,30.02,WNW,299,0.0,0.0,78,0.00,,,0.00,Wunderground v.1.15,2013-10-07 15:40:00,
2013-10-07 10:50:00,56.5,48.3,30.03,WNW,300,0.0,0.0,74,0.00,,,0.00,Wunderground v.1.15,2013-10-07 15:50:00,
2013-10-07 11:00:00,57.6,47.1,30.03,NNW,345,0.0,3.0,68,0.00,,,0.00,Wunderground v.1.15,2013-10-07 16:00:00,
2013-10-07 11:05:00,58.0,47.1,30.02,WNW,297,1.0,3.0,67,0.00,,,0.00,Wunderground v.1.15,2013-10-07 16:05:00,
2013-10-07 11:15:00,58.9,48.4,30.02,NNW,337,1.0,2.0,68,0.00,,,0.00,Wunderground v.1.15,2013-10-07 16:15:00,
2013-10-07 11:25:00,59.6,47.0,30.03,North,349,1.0,1.0,63,0.00,,,0.00,Wunderground v.1.15,2013-10-07 16:25:00,
2013-10-07 11:35:00,60.2,44.9,30.03,NE,37,1.0,3.0,57,0.00,,,0.00,Wunderground v.1.15,2013-10-07 16:35:00,
2013-10-07 11:45:00,60.9,45.1,30.03,NW,311,1.0,3.0,56,0.00,,,0.00,Wunderground v.1.15,2013-10-07 16:45:00,
2013-10-07 11:55:00,61.7,43.9,30.03,NNE,18,2.0,2.0,52,0.00,,,0.00,Wunderground v.1.15,2013-10-07 16:55:00,
2013-10-07 12:05:00,62.2,44.3,30.03,NNW,336,1.0,2.0,52,0.00,,,0.00,Wunderground v.1.15,2013-10-07 17:05:00,
2013-10-07 12:15:00,63.1,43.1,30.03,NNE,29,2.0,2.0,48,0.00,,,0.00,Wunderground v.1.15,2013-10-07 17:15:00,
2013-10-07 12:25:00,62.9,42.9,30.03,WNW,300,2.0,3.0,48,0.00,,,0.00,Wunderground v.1.15,2013-10-07 17:25:00,
2013-10-07 12:35:00,63.4,43.4,30.03,WNW,291,2.0,4.0,48,0.00,,,0.00,Wunderground v.1.15,2013-10-07 17:35:00,
2013-10-07 12:45:00,63.5,41.8,30.03,NNW,347,2.0,4.0,45,0.00,,,0.00,Wunderground v.1.15,2013-10-07 17:45:00,
2013-10-07 12:55:00,63.6,41.9,30.03,WSW,237,2.0,4.0,45,0.00,,,0.00,Wunderground v.1.15,2013-10-07 17:55:00,
2013-10-07 13:00:00,63.8,41.5,30.03,NE,48,3.0,4.0,44,0.00,,,0.00,Wunderground v.1.15,2013-10-07 18:00:00,
2013-10-07 13:05:00,63.5,44.0,30.03,West,277,2.0,4.0,49,0.00,,,0.00,Wunderground v.1.15,2013-10-07 18:05:00,
2013-10-07 13:15:00,64.3,42.5,30.03,SSW,207,1.0,3.0,45,0.00,,,0.00,Wunderground v.1.15,2013-10-07 18:15:00,
2013-10-07 13:25:00,64.5,42.1,30.03,WNW,283,2.0,2.0,44,0.00,,,0.00,Wunderground v.1.15,2013-10-07 18:25:00,
2013-10-07 13:30:00,64.7,44.0,30.03,WNW,285,1.0,1.0,47,0.00,,,0.00,Wunderground v.1.15,2013-10-07 18:30:00,
2013-10-07 13:40:00,64.5,42.1,30.02,NNW,341,1.0,1.0,44,0.00,,,0.00,Wunderground v.1.15,2013-10-07 18:40:00,
2013-10-07 13:50:00,64.7,44.0,30.02,WNW,293,1.0,1.0,47,0.00,,,0.00,Wunderground v.1.15,2013-10-07 18:50:00,
2013-10-07 14:00:00,65.0,43.7,30.02,NNE,19,2.0,3.0,46,0.00,,,0.00,Wunderground v.1.15,2013-10-07 19:00:00,
2013-10-07 14:05:00,64.9,41.9,30.02,NNE,31,2.0,3.0,43,0.00,,,0.00,Wunderground v.1.15,2013-10-07 19:05:00,
2013-10-07 14:15:00,65.0,43.7,30.02,WNW,294,1.0,1.0,46,0.00,,,0.00,Wunderground v.1.15,2013-10-07 19:15:00,
2013-10-07 14:25:00,65.7,43.8,30.01,NW,309,0.0,1.0,45,0.00,,,0.00,Wunderground v.1.15,2013-10-07 19:25:00,
2013-10-07 14:35:00,65.8,42.7,30.01,NW,310,1.0,1.0,43,0.00,,,0.00,Wunderground v.1.15,2013-10-07 19:35:00,
2013-10-07 14:45:00,66.5,44.5,30.01,NW,312,0.0,1.0,45,0.00,,,0.00,Wunderground v.1.15,2013-10-07 19:45:00,
2013-10-07 14:55:00,67.0,44.9,30.01,West,259,1.0,2.0,45,0.00,,,0.00,Wunderground v.1.15,2013-10-07 19:55:00,
2013-10-07 15:00:00,67.4,45.3,30.01,West,273,1.0,1.0,45,0.00,,,0.00,Wunderground v.1.15,2013-10-07 20:00:00,
2013-10-07 15:05:00,67.0,43.1,30.01,NW,314,1.0,1.0,42,0.00,,,0.00,Wunderground v.1.15,2013-10-07 20:05:00,
2013-10-07 15:15:00,67.3,42.8,30.01,West,276,1.0,1.0,41,0.00,,,0.00,Wunderground v.1.15,2013-10-07 20:15:00,
2013-10-07 15:25:00,67.9,42.7,30.01,SSW,205,2.0,2.0,40,0.00,,,0.00,Wunderground v.1.15,2013-10-07 20:25:00,
2013-10-07 15:35:00,67.9,42.7,30.01,NE,45,1.0,2.0,40,0.00,,,0.00,Wunderground v.1.15,2013-10-07 20:35:00,
2013-10-07 15:45:00,68.4,41.8,30.01,WSW,243,3.0,4.0,38,0.00,,,0.00,Wunderground v.1.15,2013-10-07 20:45:00,
2013-10-07 15:50:00,68.3,41.7,30.01,South,188,3.0,6.0,38,0.00,,,0.00,Wunderground v.1.15,2013-10-07 20:50:00,
2013-10-07 16:00:00,67.8,39.9,30.00,SW,234,4.0,4.0,36,0.00,,,0.00,Wunderground v.1.15,2013-10-07 21:00:00,
2013-10-07 16:05:00,67.7,40.5,30.00,WSW,256,3.0,4.0,37,0.00,,,0.00,Wunderground v.1.15,2013-10-07 21:05:00,
2013-10-07 16:15:00,67.9,40.7,30.00,WSW,257,1.0,2.0,37,0.00,,,0.00,Wunderground v.1.15,2013-10-07 21:15:00,
2013-10-07 16:20:00,68.1,40.8,30.00,West,265,1.0,1.0,37,0.00,,,0.00,Wunderground v.1.15,2013-10-07 21:20:00,
2013-10-07 16:30:00,68.3,41.7,30.00,WSW,241,0.0,0.0,38,0.00,,,0.00,Wunderground v.1.15,2013-10-07 21:30:00,
2013-10-07 16:40:00,68.6,41.3,30.00,West,276,2.0,3.0,37,0.00,,,0.00,Wunderground v.1.15,2013-10-07 21:40:00,
2013-10-07 16:50:00,68.9,40.8,30.00,SW,235,2.0,2.0,36,0.00,,,0.00,Wunderground v.1.15,2013-10-07 21:50:00,
2013-10-07 16:55:00,68.7,42.7,30.00,South,189,2.0,2.0,39,0.00,,,0.00,Wunderground v.1.15,2013-10-07 21:55:00,
2013-10-07 17:05:00,68.0,42.1,30.00,SW,220,3.0,6.0,39,0.00,,,0.00,Wunderground v.1.15,2013-10-07 22:05:00,
2013-10-07 17:15:00,67.8,42.6,30.00,South,189,2.0,4.0,40,0.00,,,0.00,Wunderground v.1.15,2013-10-07 22:15:00,
2013-10-07 17:25:00,67.7,42.5,30.00,SSW,205,3.0,3.0,40,0.00,,,0.00,Wunderground v.1.15,2013-10-07 22:25:00,
2013-10-07 17:35:00,67.5,42.3,30.00,South,186,2.0,3.0,40,0.00,,,0.00,Wunderground v.1.15,2013-10-07 22:35:00,
2013-10-07 17:45:00,67.5,41.0,29.99,SSW,203,1.0,1.0,38,0.00,,,0.00,Wunderground v.1.15,2013-10-07 22:45:00,
2013-10-07 17:55:00,67.4,40.9,29.99,SSW,210,1.0,2.0,38,0.00,,,0.00,Wunderground v.1.15,2013-10-07 22:55:00,
2013-10-07 18:00:00,67.2,42.7,29.99,SSW,204,1.0,1.0,41,0.00,,,0.00,Wunderground v.1.15,2013-10-07 23:00:00,
2013-10-07 18:05:00,67.0,43.8,29.99,SSW,204,1.0,1.0,43,0.00,,,0.00,Wunderground v.1.15,2013-10-07 23:05:00,
2013-10-07 18:15:00,66.7,44.1,29.99,SSW,204,0.0,0.0,44,0.00,,,0.00,Wunderground v.1.15,2013-10-07 23:15:00,
2013-10-07 18:25:00,65.5,45.8,29.99,SSW,204,0.0,0.0,49,0.00,,,0.00,Wunderground v.1.15,2013-10-07 23:25:00,
2013-10-07 18:35:00,63.5,46.6,29.99,SSW,204,0.0,0.0,54,0.00,,,0.00,Wunderground v.1.15,2013-10-07 23:35:00,
2013-10-07 18:45:00,62.2,46.3,29.99,SSW,204,0.0,0.0,56,0.00,,,0.00,Wunderground v.1.15,2013-10-07 23:45:00,
2013-10-07 18:55:00,60.9,46.5,29.99,SSW,204,0.0,0.0,59,0.00,,,0.00,Wunderground v.1.15,2013-10-07 23:55:00,
2013-10-07 19:05:00,59.6,47.0,29.99,SSW,204,0.0,0.0,63,0.00,,,0.00,Wunderground v.1.15,2013-10-08 00:05:00,
2013-10-07 19:15:00,58.6,46.5,30.00,SSW,204,0.0,0.0,64,0.00,,,0.00,Wunderground v.1.15,2013-10-08 00:15:00,
2013-10-07 19:25:00,57.5,46.2,30.00,SSW,204,0.0,0.0,66,0.00,,,0.00,Wunderground v.1.15,2013-10-08 00:25:00,
2013-10-07 19:35:00,56.7,46.3,30.00,SSW,204,0.0,0.0,68,0.00,,,0.00,Wunderground v.1.15,2013-10-08 00:35:00,
2013-10-07 19:40:00,56.2,46.2,30.00,SSW,204,0.0,0.0,69,0.00,,,0.00,Wunderground v.1.15,2013-10-08 00:40:00,
2013-10-07 19:50:00,55.3,46.1,30.00,SSW,204,0.0,0.0,71,0.00,,,0.00,Wunderground v.1.15,2013-10-08 00:50:00,
2013-10-07 20:00:00,54.4,45.9,30.00,SSW,204,0.0,0.0,73,0.00,,,0.00,Wunderground v.1.15,2013-10-08 01:00:00,
2013-10-07 20:05:00,54.0,45.9,30.00,SSW,203,0.0,0.0,74,0.00,,,0.00,Wunderground v.1.15,2013-10-08 01:05:00,
2013-10-07 20:15:00,53.3,45.6,30.00,SSW,204,0.0,0.0,75,0.00,,,0.00,Wunderground v.1.15,2013-10-08 01:15:00,
2013-10-07 20:20:00,52.8,45.4,30.00,SSW,204,0.0,0.0,76,0.00,,,0.00,Wunderground v.1.15,2013-10-08 01:20:00,
2013-10-07 20:30:00,52.9,44.8,30.00,SSE,154,0.0,0.0,74,0.00,,,0.00,Wunderground v.1.15,2013-10-08 01:30:00,
2013-10-07 20:40:00,52.6,43.8,30.00,SSE,154,0.0,0.0,72,0.00,,,0.00,Wunderground v.1.15,2013-10-08 01:40:00,
2013-10-07 20:50:00,53.0,43.8,30.00,SSE,152,0.0,0.0,71,0.00,,,0.00,Wunderground v.1.15,2013-10-08 01:50:00,
2013-10-07 21:00:00,53.1,43.6,30.00,SSE,152,0.0,0.0,70,0.00,,,0.00,Wunderground v.1.15,2013-10-08 02:00:00,
2013-10-07 21:05:00,53.3,43.4,30.00,SSE,152,0.0,0.0,69,0.00,,,0.00,Wunderground v.1.15,2013-10-08 02:05:00,
2013-10-07 21:15:00,53.6,43.3,30.00,SSE,152,0.0,0.0,68,0.00,,,0.00,Wunderground v.1.15,2013-10-08 02:15:00,
2013-10-07 21:20:00,53.5,43.2,30.00,SSE,152,0.0,0.0,68,0.00,,,0.00,Wunderground v.1.15,2013-10-08 02:20:00,
2013-10-07 21:30:00,53.7,43.0,30.00,SE,144,0.0,0.0,67,0.00,,,0.00,Wunderground v.1.15,2013-10-08 02:30:00,
2013-10-07 21:35:00,53.9,43.2,30.00,East,100,1.0,1.0,67,0.00,,,0.00,Wunderground v.1.15,2013-10-08 02:35:00,
2013-10-07 21:45:00,53.8,43.5,30.00,ESE,113,0.0,1.0,68,0.00,,,0.00,Wunderground v.1.15,2013-10-08 02:45:00,
2013-10-07 21:50:00,53.5,43.6,30.00,ESE,113,0.0,0.0,69,0.00,,,0.00,Wunderground v.1.15,2013-10-08 02:50:00,
2013-10-07 22:00:00,53.4,43.5,30.00,ESE,113,0.0,0.0,69,0.00,,,0.00,Wunderground v.1.15,2013-10-08 03:00:00,
2013-10-07 22:05:00,53.3,43.8,30.00,ESE,113,0.0,0.0,70,0.00,,,0.00,Wunderground v.1.15,2013-10-08 03:05:00,
2013-10-07 22:15:00,52.8,43.3,30.00,ESE,112,0.0,0.0,70,0.00,,,0.00,Wunderground v.1.15,2013-10-08 03:15:00,
2013-10-07 22:25:00,52.7,43.6,30.00,ESE,113,0.0,0.0,71,0.00,,,0.00,Wunderground v.1.15,2013-10-08 03:25:00,
2013-10-07 22:35:00,52.6,43.5,30.00,ESE,113,0.0,1.0,71,0.00,,,0.00,Wunderground v.1.15,2013-10-08 03:35:00,
2013-10-07 22:45:00,52.5,43.4,30.00,ESE,113,1.0,1.0,71,0.00,,,0.00,Wunderground v.1.15,2013-10-08 03:45:00,
2013-10-07 22:55:00,52.2,43.4,30.00,ESE,114,0.0,0.0,72,0.00,,,0.00,Wunderground v.1.15,2013-10-08 03:55:00,
2013-10-07 23:05:00,52.0,43.3,30.00,ESE,114,0.0,1.0,72,0.00,,,0.00,Wunderground v.1.15,2013-10-08 04:05:00,
2013-10-07 23:10:00,51.9,43.2,30.00,ESE,114,0.0,0.0,72,0.00,,,0.00,Wunderground v.1.15,2013-10-08 04:10:00,
2013-10-07 23:15:00,51.8,43.1,30.00,ESE,114,0.0,0.0,72,0.00,,,0.00,Wunderground v.1.15,2013-10-08 04:15:00,
2013-10-07 23:20:00,51.7,43.0,29.99,ESE,114,0.0,0.0,72,0.00,,,0.00,Wunderground v.1.15,2013-10-08 04:20:00,
2013-10-07 23:30:00,51.6,42.9,29.99,ESE,114,1.0,1.0,72,0.00,,,0.00,Wunderground v.1.15,2013-10-08 04:30:00,
2013-10-07 23:40:00,51.2,42.8,29.99,ESE,114,0.0,0.0,73,0.00,,,0.00,Wunderground v.1.15,2013-10-08 04:40:00,
2013-10-07 23:45:00,51.0,42.6,29.99,ESE,114,0.0,0.0,73,0.00,,,0.00,Wunderground v.1.15,2013-10-08 04:45:00,
2013-10-07 23:55:00,50.8,42.8,29.99,ESE,114,0.0,0.0,74,0.00,,,0.00,Wunderground v.1.15,2013-10-08 04:55:00,